Hourly Data Report for October 11, 2020

MUSKOKA
ONTARIO
Current Station Operator: NAVCAN

44°58'29.000" N
79°18'12.000" W
281.90 m
6115529
71532
YQA

Download Data

Hourly Data (October 2020)
Hourly Data Report for October 11, 2020
TIME Temp Definition
°C
Dew Point Definition
°C
Rel Hum Definition
%
Wind Dir Definition
10's deg

Wind Spd Definition
km/h
Visibility Definition
km
Stn Press Definition
kPa
Hmdx Definition


Wind Chill Definition


Weather Definition


00:00 3.8 1.2 83 35 8 16.1 98.54     LegendNANA
01:00 3.5 0.7 82 35 5 16.1 98.61     LegendNANA
02:00 1.5 0.5 93 34 8 16.1 98.68     LegendNANA
03:00 0.4 0.0 97   0 16.1 98.72     LegendNANA
04:00 -0.4 -0.7 98   0 16.1 98.75     LegendNANA
05:00 -1.0 -1.6 96 LegendMM 4 16.1 98.82   -2 LegendNANA
06:00 -1.0 -1.4 97 LegendMM 4 16.1 98.89   -2 LegendNANA
07:00 -1.0 -1.8 95 35 5 16.1 98.96   -3 LegendNANA
08:00 2.5 -0.4 81 LegendMM 5 16.1 99.03     LegendNANA
09:00 4.6 -1.0 67 10 13 16.1 99.09     LegendNANA
10:00 6.5 -2.0 55 9 13 16.1 99.07     LegendNANA
11:00 8.3 -1.5 50 11 11 16.1 99.06     LegendNANA
12:00 10.1 -0.6 47 12 15 16.1 98.98     LegendNANA
13:00 11.5 -0.5 43 LegendMM 5 16.1 98.95     LegendNANA
14:00 11.9 -0.8 41 11 8 16.1 98.87     LegendNANA
15:00 12.8 -1.2 38 8 9 16.1 98.82     LegendNANA
16:00 12.3 -3.0 34 10 9 16.1 98.82     LegendNANA
17:00 11.3 -3.2 36 11 11 16.1 98.82     LegendNANA
18:00 6.2 -0.9 60 11 4 16.1 98.83     LegendNANA
19:00 3.2 -0.2 78 10 8 16.1 98.84     LegendNANA
20:00 2.7 -1.1 76 11 5 16.1 98.87     LegendNANA
21:00 3.3 -1.2 72 LegendMM 4 16.1 98.87     LegendNANA
22:00 4.2 -1.2 68 9 8 16.1 98.82     LegendNANA
23:00 4.4 -1.4 66 11 13 16.1 98.77     LegendNANA

Notes on Data Quality.

Legend

  • E = Estimated
  • M = Missing
  • NA = Not Available*
  • [empty] = Indicates an unobserved value
Date modified: